Regional Weather Roundup
Issued by NWS

Home | Current Version | Previous Version | Graphics & Text | Print | Product List | Glossary On
Versions: 1 2 3 4 5 6 7 8 9 10 11 12 13 14 15 16 17 18 19 20 21 22 23 24 25 26 27 28 29 30 31 32 33 34 35 36 37 38 39 40 41 42 43 44 45 46 47 48 49 50
000
ASUS43 KMKX 131859
RWRWI

WISCONSIN REGIONAL WEATHER ROUNDUP
NATIONAL WEATHER SERVICE MILWAUKEE/SULLIVAN WI
100 PM CST WED DEC 13 2017

NOTE: "FAIR" INDICATES FEW OR NO CLOUDS BELOW 12,000 FEET WITH NO
SIGNIFICANT WEATHER AND/OR OBSTRUCTIONS TO VISIBILITY.

WIZ001-002-006>008-014>016-023>028-132000-
NORTHWEST WISCONSIN

CITY           SKY/WX    TMP DP  RH WIND       PRES   REMARKS
SUPERIOR ARPT  LGT SNOW  25  21  82 NE15G22   29.61R WCI  13
ASHLAND        LGT SNOW  18  13  80 NE8       29.61R WCI   8
HAYWARD        LGT SNOW  19  12  74 N13       29.54R WCI   6
SIREN          CLOUDY    23  16  74 N15       29.57R WCI  10
CUMBERLAND     CLOUDY    19  14  79 N13       29.51R WCI   7
RICE LAKE      CLOUDY    21  15  78 N12G18    29.53R WCI   9
CHETEK         CLOUDY    20  14  78 N7G16     29.51R WCI  11
LADYSMITH      FLURRIES  19  12  76 N10       29.51R WCI   7
EAU CLAIRE     NOT AVBL
MENOMONIE      CLOUDY    24  19  78 NW16      29.50R WCI  11
NEW RICHMOND   CLOUDY    22  15  75 N20       29.55R WCI   7
OSCEOLA        CLOUDY    23  17  79 NW15      29.60R WCI  10
$$

WIZ003>005-009-010-017-018-132000-
NORTH CENTRAL WISCONSIN

CITY           SKY/WX    TMP DP  RH WIND       PRES   REMARKS
MANITOWISH WTR LGT SNOW  15  11  87 NE7       29.48R WCI   5
ARBOR VITAE    LGT SNOW  17  13  84 N6        29.46R WCI   8
WOODRUFF       LGT SNOW  17  13  84 N6        29.46R WCI   8
RHINELANDER    LGT SNOW  16  13  88 NE8G17    29.43R FOG     WCI   5
EAGLE RIVER    LGT SNOW  15  10  82 NE10      29.44S WCI   2
LAND O LAKES   LGT SNOW  15  11  83 NE7       29.49R WCI   6
PHILLIPS       FLURRIES  15  10  82 N9        29.46R WCI   3
TOMAHAWK       LGT SNOW  16  12  84 N5        29.43R WCI   9
MEDFORD        LGT SNOW  16  12  82 N7        29.41R WCI   7
MERRILL        LGT SNOW  18  15  86 NE10      29.41R WCI   6
$$

WIZ029-030-035-036-043>047-132000-
CENTRAL WISCONSIN

CITY           SKY/WX    TMP DP  RH WIND       PRES   REMARKS
WAUSAU         LGT SNOW  20  16  84 NE7       29.37S FOG     WCI  11
MOSINEE        LGT SNOW  19  16  86 N8        29.38S WCI   9
MARSHFIELD     LGT SNOW  19  14  81 N13       29.39R WCI   6
STEVENS POINT  MIX PCPN  19  17  93 N9        29.37S WCI   8
WAUPACA        CLOUDY    28  23  81 N7        29.35F WCI  21
WAUTOMA        CLOUDY    24  20  84 N8        29.34S WCI  15
WISC RAPIDS    LGT SNOW  22  18  85 N12       29.38S FOG     WCI  10
CAMP DOUGLAS   NOT AVBL
$$

WIZ011>013-019>022-031-037>040-048>050-132000-
NORTHEAST WISCONSIN

CITY           SKY/WX    TMP DP  RH WIND       PRES   REMARKS
ANTIGO         LGT SNOW  18  15  88 NE16      29.37F WCI   3
SHAWANO        LGT SNOW  28  25  89 NE10      29.37F VSB 3/4 WCI  19
OCONTO         CLOUDY    26  24  91 E12       29.41F VSB 1/2 WCI  16
STURGEON BAY   SNOW      26  23  88 E13       29.42F VSB 1/2 WCI  15
GREEN BAY      SNOW      28  24  85 E15       29.35S VSB 1/2 WCI  16
MANITOWOC      SNOW      26  24  92 E25       29.32F VSB 1/4 WCI  11
APPLETON       LGT SNOW  27  23  86 CALM      29.30F
CLINTONVILLE   NOT AVBL
OSHKOSH        SNOW      26  23  88 CALM      29.30F VSB 1/2
$$

WIZ032>034-041-042-053>061-132000-
SOUTHWEST WISCONSIN

CITY           SKY/WX    TMP DP  RH WIND       PRES   REMARKS
LA CROSSE      CLOUDY    28  21  75 NW23G29   29.45R WCI  14
SPARTA         CLOUDY    26  19  77 N10       29.42R WCI  16
VIROQUA        CLOUDY    28  25  86 NW20G25   29.35R WCI  15
BOSCOBEL       CLOUDY    34  24  67 NW12G22   29.39R WCI  25
PRAIRIE DU CHI CLOUDY    34  24  65 NW23      29.39R WCI  22
PLATTEVILLE    CLOUDY    36  27  69 NW23G29   29.32R WCI  25
$$

WIZ056-057-062-063-064-067-068-132000-
SOUTH CENTRAL WISCONSIN

CITY           SKY/WX    TMP DP  RH WIND       PRES   REMARKS
REEDSBURG      CLOUDY    28  21  75 N9        29.32R WCI  20
BARABOO/DELLS  CLOUDY    28  20  71 N8        29.32R WCI  20
LONE ROCK      NOT AVBL
MINERAL POINT  PTSUNNY   34  27  75 NW17G28   29.30R WCI  23
MADISON        CLOUDY    32  22  66 NW12      29.29F WCI  23
MIDDLETON      CLOUDY    33  24  68 NW13      29.29F WCI  24
WATERTOWN      CLOUDY    30  23  74 CALM      29.27F
MONROE         PTSUNNY   34  27  75 NW14G21   29.26F WCI  24
JANESVILLE     FLURRIES  36  25  64 W12       29.26F WCI  27
$$

WIZ051-052-058>065-066-070>072-132000-
SOUTHEAST WISCONSIN

CITY           SKY/WX    TMP DP  RH WIND       PRES   REMARKS
MILWAUKEE      LGT SNOW  33  23  66 SW7       29.28F WCI  27
WAUKESHA       LGT SNOW  27  25  93 N6        29.28F WCI  20
MILWAUKEE/TIMM LGT SNOW  28  25  86 CALM      29.30F
RACINE         CLOUDY    33  22  63 SW6       29.28F WCI  28
BURLINGTON       N/A    N/A N/A N/A MISG        N/A
KENOSHA        CLOUDY    35  22  58 SW9       29.26F WCI  28
FOND DU LAC    LGT SNOW  27  22  81 NE5       29.30F VSB 3/4 WCI  22
SHEBOYGAN      LGT SNOW  28  27  96 SW5       29.29F FOG     WCI  23
WEST BEND      LGT SNOW  27  27 100 CALM      29.29F VSB 3/4
JUNEAU         LGT SNOW  27  24  89 CALM      29.29F
$$

LSZ147-162-132000-
LAKE SUPERIOR

STATION/POSITION TIME  TEMP    WIND        PRES    WAVE
                       AIR SEA DIR/SP/G            HT/PER
                 (UTC) (F)     (DEG/KT/KT) (MB)    (FT/S)
DEVILS ISLAND    1800   22      90/ 21/ 24 1004.3R
SAXON HARBOR     1730   18                 1002.0R
$$

LMZ867-665-643>646-132000-
LAKE MICHIGAN

STATION/POSITION TIME  TEMP    WIND        PRES    WAVE
                       AIR SEA DIR/SP/G            HT/PER
                 (UTC) (F)     (DEG/KT/KT) (MB)    (FT/S)
NORTHPORT PIER   1745   25      90/ 21      999.0F
KEWAUNEE LAKESHO 1824   28     120/ 21/ 26  994.3
SHEBOYGAN LAKESH 1800   31     190/ 15/ 18  993.7F
PORT WASHINGTON  1800   29     170/  7/ 18  994.2
MILWAUKEE LAKESH 1830   32     200/ 10/ 11   N/A
KENOSHA   LAKESH 1800   32     200/ 10/ 12  993.2
$$

TC  - TEMPERATURE IN CELSIUS
VSB - VISIBILITY IN STATUTE MILES
WCI - WIND CHILL INDEX
HX  - HEAT INDEX




USA.gov is the U.S. government's official web portal to all federal, state and local government web resources and services.